Location: *
(42.5628°N, 2.3633°E)
Time: 08:19:39
(UTC+00:00)

Cosmos 1943 Rocket - Pass Details

Date: 30 March 2020
Orbit: 811 x 845 km, 71.0° (Epoch: 03 June)

Event Time Altitude Azimuth Distance (km) Brightness Sun altitude
Rises 21:38:50 0° 319° (NW) 3,353 6.4 -34.0°
Reaches altitude 10° 21:42:01 10° 301° (WNW) 2,421 5.3 -34.4°
Maximum altitude 21:45:34 18° 261° (W) 1,940 4.3 -34.8°
Enters shadow 21:46:00 17° 255° (WSW) 1,948 4.3 -34.9°
